Regional Weather Roundup
Issued by NWS

Home | Current Version | Previous Version | Graphics & Text | Print | Product List | Glossary On
Versions: 1 2 3 4 5 6 7 8 9 10 11 12 13 14 15 16 17 18 19 20 21 22 23 24 25 26 27 28 29 30 31 32 33 34 35 36 37 38 39 40 41 42 43 44 45 46 47 48 49 50
798
ASUS45 KABQ 201810
RWRNM
NEW MEXICO REGIONAL WEATHER ROUNDUP
NATIONAL WEATHER SERVICE ALBUQUERQUE NM
1100 AM MST FRI JAN 20 2017

NOTE: "FAIR" MEANS FEW OR NO CLOUDS BELOW 12,000 FEET AGL WITH NO
       SIGNIFICANT WEATHER OR OBSTRUCTIONS TO VISION.

      THIS PRODUCT IS RELEASED AS TWO VERSIONS.  ONE VERSION NEAR
      THE TOP OF THE HOUR CONTAINING PRELIMINARY DATA FROM ALBUQUERQUE
      AND OTHER STATIONS.  A FINAL VERSION WITH ADDITIONAL DATA IS
      ISSUED ABOUT 10 MINUTES AFTER THE HOUR.

NMZ501-503-504-510>518-201900-
NORTHWEST PLATEAU/NORTHCENTRAL MOUNTAINS

CITY           SKY/WX    TMP DP  RH WIND       PRES   REMARKS
FARMINGTON     PTSUNNY   36  27  69 W8        29.72S WCI  30
6HR MIN TEMP:  28; 6HR MAX TEMP:  36; 6HR PCP: TRACE;

LOS ALAMOS     FAIR      34  19  53 W24G44    29.65F WCI  21
SANTA FE       FAIR      39  22  50 W23G38    29.67F WCI  28
6HR MIN TEMP:  32; 6HR MAX TEMP:  39; 6HR PCP: TRACE;

TAOS           CLOUDY    30  16  55 SW18      29.65F WCI  18
ANGEL FIRE     LGT SNOW  25  17  74 S7        29.61F WCI  17

$$
NMZ402-403-502-505>509-201900-
WESTCENTRAL MOUNTAINS/SOUTHWEST MOUNTAINS

CITY           SKY/WX    TMP DP  RH WIND       PRES   REMARKS
GALLUP         CLOUDY    32  27  81 SW15G22   29.74F WCI  22
6HR MIN TEMP:  29; 6HR MAX TEMP:  32; 6HR PCP: TRACE;

GRANTS         CLOUDY    35  25  67 N13       29.76F WCI  26
SILVER CITY    CLOUDY    43  30  61 SW14G23   29.85F

$$
NMZ407-409-411-412-201900-
SOUTHERN DESERTS

CITY           SKY/WX    TMP DP  RH WIND       PRES   REMARKS
DEMING         FAIR      50  32  50 SW21G30   29.84F
6HR MIN TEMP:  36; 6HR MAX TEMP:  50;

LAS CRUCES     FAIR      48  30  49 W15G22    29.87F
HOLLOMAN AFB   PTSUNNY   51  31  47 S7        29.85F
ALAMOGORDO     FAIR      48  30  49 S15       29.85F
T OR C         CLOUDY    50  28  42 S14       29.77F
6HR MIN TEMP:  41; 6HR MAX TEMP:  50;


$$
NMZ519>523-201900-
CENTRAL VALLEYS/CENTRAL HIGHLANDS

CITY           SKY/WX    TMP DP  RH WIND       PRES   REMARKS
ALBUQUERQUE    CLOUDY    40  30  67 SW13      29.76F WCI  32
6HR MIN TEMP:  33; 6HR MAX TEMP:  41; 6HR PCP: TRACE;

DOUBLE EAGLE   MOSUNNY   39  25  56 W15G21    29.75S WCI  31
MORIARTY ARPT  FAIR      38  25  59 W15G26    29.73F WCI  30
6HR MIN TEMP:  31; 6HR MAX TEMP:  38;

CLINES CORNERS FAIR      33  22  63 W30G39    29.68F WCI  19
6HR MIN TEMP:  27; 6HR MAX TEMP:  33; 6HR PCP:  0.10;

BELEN          FAIR      42  28  57 W9        29.77F
6HR MIN TEMP:  31; 6HR MAX TEMP:  42;

SOCORRO        LGT RAIN  43  33  67 CALM      29.78F
6HR MIN TEMP:  34; 6HR MAX TEMP:  43; 6HR PCP:  0.05;


$$
NMZ524>526-539-540-201900-
SOUTHCENTRAL MOUNTAINS

CITY           SKY/WX    TMP DP  RH WIND       PRES   REMARKS
RUIDOSO        FAIR      39  27  60 SW30G40   29.75F WCI  27

$$
NMZ527>531-201900-
NORTHEAST HIGHLANDS/NORTHEAST PLAINS

CITY           SKY/WX    TMP DP  RH WIND       PRES   REMARKS
LAS VEGAS      FAIR      36  20  52 W25G37    29.61F WCI  24
6HR MIN TEMP:  29; 6HR MAX TEMP:  36;

RATON          FAIR      42  10  27 W17G24    29.47F
6HR MIN TEMP:  33; 6HR MAX TEMP:  44;

CLAYTON        FAIR      48  20  32 SW28G41   29.47F
6HR MIN TEMP:  26; 6HR MAX TEMP:  49;


$$
NMZ532>537-201900-
EASTCENTRAL PLAINS

CITY           SKY/WX    TMP DP  RH WIND       PRES   REMARKS
TUCUMCARI      FAIR      51  28  41 W36G47    29.57F
6HR MIN TEMP:  37; 6HR MAX TEMP:  52;

CANNON AFB     NOT AVBL
CLOVIS AIRPORT FAIR      52  30  43 W23G36    29.65F

$$
NMZ028-029-538-201900-
SOUTHEAST PLAINS

CITY           SKY/WX    TMP DP  RH WIND       PRES   REMARKS
ROSWELL        FAIR      61  26  26 W21G30    29.70F
6HR MIN TEMP:  39; 6HR MAX TEMP:  61;

ARTESIA        FAIR      59  30  33 SW24G31   29.74F
CARLSBAD       FAIR      60  24  25 W30G38    29.75F
6HR MIN TEMP:  48; 6HR MAX TEMP:  61;

HOBBS          SUNNY     57  28  33 SW25G31   29.76F


$$




USA.gov is the U.S. government's official web portal to all federal, state and local government web resources and services.